M I D A S
Marine Information and Data Acquisition System
Tripno 2170 of the Zeeleeuw from 2011-08-24 07:46:48 to 2011-08-24 18:34:13
Back to CruiseResearch ActivitiesStationsMapUnderway DataData graphs

EquipmentUnitsComment
TimeDGPSUTC
LatitudeDGPSDM.mWGS84
LongitudeDGPSDM.mWGS84
TemperatureSBE03/SBE38deg celciusITS90
ConductivitySBE21S/mITS90
SalinitySBE21 Practical Salinity Units
ChlorophylAChelsea fluorimeterg/lCalibrated in Aceton
Missing or incorrect values are displayed as -999
Sea surface data collected by the RV Zeeleeuw from 2011-08-24 07:37:39 to 2011-08-24 18:44:02
Time Latitude Longitude Temperature Conductivity Salinity ChlorophylA
2011-08-24 07:38:48 51°13.653 2°55.943 22.7983 0.009297 0.051457 -3.020363
2011-08-24 07:39:48 51°13.684 2°55.846 22.8284 0.009297 0.051452 -3.020363
2011-08-24 07:40:48 51°13.732 2°55.734 22.7966 0.009297 0.051445 -3.020363
2011-08-24 07:41:48 51°13.79 2°55.654 22.7874 0.009297 0.051436 -3.020363
2011-08-24 07:42:48 51°13.878 2°55.621 22.8173 0.009297 0.051427 -3.020363
2011-08-24 07:43:48 51°13.944 2°55.642 22.8148 0.009297 0.051415 -3.020363
2011-08-24 07:44:45 51°13.961 2°55.649 22.6833 0.009297 0.051402 -3.020363
2011-08-24 07:45:44 51°13.995 2°55.569 22.7766 0.009297 0.051387 -3.020363
2011-08-24 07:46:45 51°14.114 2°55.443 22.756 0.009297 0.051372 -3.020363
2011-08-24 07:47:48 51°14.271 2°55.298 22.7118 0.009297 0.051356 -3.020363
2011-08-24 07:48:47 51°14.427 2°55.152 22.8041 0.009297 0.051344 -3.020363
2011-08-24 07:49:45 51°14.584 2°54.999 22.7933 0.009297 0.051332 -3.020363
2011-08-24 07:50:44 51°14.708 2°54.798 22.7759 0.009297 0.051321 -3.020363
2011-08-24 07:51:44 51°14.729 2°54.507 22.7635 0.009297 0.051311 -3.020363
2011-08-24 07:52:44 51°14.702 2°54.201 22.7113 0.009297 0.051302 -3.020363
2011-08-24 07:53:44 51°14.684 2°53.891 22.7108 0.009297 0.051295 -3.020363
2011-08-24 07:54:44 51°14.703 2°53.576 22.7475 0.009297 0.05129 -3.020363
2011-08-24 07:55:44 51°14.716 2°53.26 22.7424 0.009297 0.051285 -3.020363
2011-08-24 07:56:44 51°14.744 2°52.948 22.7505 0.009297 0.051282 -3.020363
2011-08-24 07:57:44 51°14.753 2°52.633 22.7408 0.009297 0.05128 -3.020363
2011-08-24 07:58:44 51°14.776 2°52.322 22.7061 0.009297 0.051278 -3.020363
2011-08-24 07:59:44 51°14.786 2°52.008 22.7383 0.009297 0.051278 -3.020363
2011-08-24 08:00:44 51°14.801 2°51.693 22.7714 0.009297 0.051278 -3.020363
2011-08-24 08:01:44 51°14.807 2°51.379 22.7514 0.009297 0.051279 -3.020363
2011-08-24 08:02:44 51°14.83 2°51.068 22.7624 0.009297 0.051281 -3.020363
2011-08-24 08:03:44 51°14.837 2°50.758 22.7807 0.009297 0.051284 -3.020363
2011-08-24 08:04:44 51°14.842 2°50.448 22.7997 0.009297 0.051286 -3.020363
2011-08-24 08:05:44 51°14.847 2°50.139 22.7543 0.009297 0.051289 -3.020363
2011-08-24 08:06:44 51°14.863 2°49.83 22.8258 0.009297 0.051293 -3.020363
2011-08-24 08:07:44 51°14.863 2°49.52 22.8278 0.009297 0.051295 -3.020363
2011-08-24 08:08:44 51°14.871 2°49.209 22.8081 0.009297 0.051299 -3.020363
2011-08-24 08:09:44 51°14.881 2°48.898 22.8191 0.009297 0.051303 -3.020363
2011-08-24 08:10:44 51°14.88 2°48.588 22.8381 0.009297 0.051306 -3.020363
2011-08-24 08:11:44 51°14.868 2°48.278 22.8384 0.009297 0.05131 -3.020363
2011-08-24 08:12:44 51°14.848 2°47.973 22.861 0.009297 0.051309 -3.020363
2011-08-24 08:13:44 51°14.83 2°47.667 22.8524 0.009297 0.051305 -3.020363
2011-08-24 08:14:44 51°14.817 2°47.362 22.9031 0.009297 0.0513 -3.020363
2011-08-24 08:15:44 51°14.81 2°47.054 22.9101 0.009297 0.051294 -3.020363
2011-08-24 08:16:44 51°14.784 2°46.747 22.8786 0.009297 0.05129 -3.020363
2011-08-24 08:17:44 51°14.773 2°46.432 22.8861 0.009297 0.051289 -3.020363
2011-08-24 08:18:44 51°14.746 2°46.12 22.9231 0.009297 0.051287 -3.020363
2011-08-24 08:19:44 51°14.726 2°45.806 22.9373 0.009297 0.051287 -3.020363
2011-08-24 08:20:44 51°14.694 2°45.501 22.9613 0.009297 0.051287 -3.020363
2011-08-24 08:21:44 51°14.633 2°45.208 22.9568 0.009297 0.051287 -3.020363
2011-08-24 08:22:44 51°14.583 2°44.91 22.9865 0.009297 0.051289 -3.020363
2011-08-24 08:23:44 51°14.526 2°44.616 22.9198 0.009297 0.05129 -3.020363
2011-08-24 08:24:44 51°14.468 2°44.323 22.9888 0.009297 0.051291 -3.020363
2011-08-24 08:25:44 51°14.391 2°44.041 22.929 0.009297 0.051292 -3.020363
2011-08-24 08:26:44 51°14.325 2°43.751 23.0097 0.009297 0.051293 -3.020363
2011-08-24 08:27:44 51°14.246 2°43.468 23.025 0.009297 0.051294 -3.020363
2011-08-24 08:28:44 51°14.174 2°43.18 23.0558 0.009297 0.051293 -3.020363
2011-08-24 08:29:44 51°14.096 2°42.897 23.0539 0.009297 0.051291 -3.020363
2011-08-24 08:30:44 51°14.018 2°42.613 23.0544 0.009297 0.051289 -3.020363
2011-08-24 08:31:44 51°13.952 2°42.317 23.0746 0.009297 0.051285 -3.020363
2011-08-24 08:32:44 51°13.879 2°42.025 23.0927 0.009297 0.051279 -3.020363
2011-08-24 08:33:44 51°13.795 2°41.738 23.0771 0.009297 0.051271 -3.020363
2011-08-24 08:34:44 51°13.725 2°41.442 23.0645 0.009297 0.051263 -3.020363
2011-08-24 08:35:44 51°13.645 2°41.154 23.1095 0.009297 0.051254 -3.020363
2011-08-24 08:36:44 51°13.57 2°40.862 23.1067 0.009297 0.051246 -3.020363
2011-08-24 08:37:44 51°13.5 2°40.567 23.13 0.009297 0.051241 -3.020363
2011-08-24 08:38:44 51°13.42 2°40.279 23.1288 0.009297 0.051237 -3.020363
2011-08-24 08:39:44 51°13.353 2°39.981 23.1815 0.009297 0.051236 -3.020363
2011-08-24 08:40:44 51°13.277 2°39.69 23.1717 0.009297 0.051236 -3.020363
2011-08-24 08:41:44 51°13.202 2°39.4 23.1867 0.009297 0.051237 -3.020363
2011-08-24 08:42:44 51°13.125 2°39.111 23.1565 0.009297 0.051239 -3.020363
2011-08-24 08:43:44 51°13.054 2°38.818 23.244 0.009297 0.051241 -3.020363
2011-08-24 08:44:44 51°12.983 2°38.525 23.2217 0.009297 0.051243 -3.020363
2011-08-24 08:45:44 51°12.91 2°38.235 23.2178 0.009297 0.051246 -3.020363
2011-08-24 08:46:44 51°12.866 2°37.982 23.2394 0.009297 0.05125 -3.020363
2011-08-24 08:47:44 51°12.862 2°37.841 23.2658 0.009297 0.051253 -3.020363
2011-08-24 08:48:44 51°12.893 2°37.762 23.3054 0.009297 0.051257 -3.020363
2011-08-24 08:49:44 51°12.928 2°37.687 23.3158 0.009297 0.051259 -3.020363
2011-08-24 08:50:44 51°12.962 2°37.628 23.299 0.009297 0.05126 -3.020363
2011-08-24 08:51:46 51°12.971 2°37.646 23.311 0.009297 0.051262 -3.020363
2011-08-24 08:52:47 51°12.98 2°37.667 23.3412 0.009297 0.051263 -3.020363
2011-08-24 08:53:46 51°12.992 2°37.689 23.3478 0.009297 0.051265 -3.020363
2011-08-24 08:54:44 51°13.003 2°37.71 23.3605 0.009297 0.051267 -3.020363
2011-08-24 08:55:44 51°13.01 2°37.734 23.3564 0.009297 0.051267 -3.020363
2011-08-24 08:56:44 51°13.017 2°37.758 23.3826 0.009297 0.051268 -3.020363
2011-08-24 08:57:44 51°13.025 2°37.783 23.3621 0.009297 0.051269 -3.020363
2011-08-24 08:58:44 51°13.033 2°37.805 23.3668 0.009297 0.05127 -3.020363
2011-08-24 08:59:44 51°13.042 2°37.827 23.4016 0.009297 0.051271 -3.020363
2011-08-24 09:00:44 51°13.053 2°37.849 23.4085 0.009297 0.051273 -3.020363
2011-08-24 09:01:44 51°13.063 2°37.87 23.4021 0.009297 0.051274 -3.020363
2011-08-24 09:02:44 51°13.074 2°37.891 23.4124 0.009297 0.051275 -3.020363
2011-08-24 09:03:44 51°13.084 2°37.912 23.4503 0.009297 0.051275 -3.020363
2011-08-24 09:04:44 51°13.095 2°37.932 23.4496 0.009297 0.051277 -3.020363
2011-08-24 09:05:44 51°13.106 2°37.952 23.4623 0.009297 0.051278 -3.020363
2011-08-24 09:06:44 51°13.118 2°37.972 23.4827 0.009297 0.051279 -3.020363
2011-08-24 09:07:44 51°13.13 2°37.991 23.4689 0.009297 0.051281 -3.020363
2011-08-24 09:08:44 51°13.147 2°37.999 23.5043 0.009297 0.051283 -3.020363
2011-08-24 09:09:44 51°13.165 2°37.983 23.5105 0.009297 0.051285 -3.020363
2011-08-24 09:10:44 51°13.169 2°37.952 23.5261 0.009297 0.051285 -3.020363
2011-08-24 09:11:44 51°13.149 2°37.928 23.53 0.009297 0.051285 -3.020363
2011-08-24 09:12:44 51°13.114 2°37.906 23.528 0.009297 0.051285 -3.020363
2011-08-24 09:13:44 51°13.075 2°37.878 23.5344 0.009297 0.051285 -3.020363
2011-08-24 09:14:44 51°13.042 2°37.839 23.5453 0.009297 0.051285 -3.020363
2011-08-24 09:15:44 51°13.028 2°37.811 23.5409 0.009297 0.051285 -3.020363
2011-08-24 09:16:44 51°13.022 2°37.798 23.5918 0.009297 0.051281 -3.020363
2011-08-24 09:17:44 51°13.02 2°37.796 23.5685 0.009297 0.051277 -3.020363
2011-08-24 09:18:44 51°13.019 2°37.796 23.5861 0.009297 0.051275 -3.020363
2011-08-24 09:19:44 51°13.02 2°37.797 23.6179 0.009297 0.051274 -3.020363
2011-08-24 09:20:44 51°13.025 2°37.804 23.6161 0.009297 0.051272 -3.020363
2011-08-24 09:21:44 51°13.034 2°37.81 23.6337 0.009297 0.051269 -3.020363
2011-08-24 09:22:44 51°13.044 2°37.818 23.6266 0.009297 0.051266 -3.020363
2011-08-24 09:23:44 51°13.056 2°37.832 23.6328 0.009297 0.051263 -3.020363
2011-08-24 09:24:44 51°13.067 2°37.849 23.6516 0.009297 0.05126 -3.020363
2011-08-24 09:25:44 51°13.078 2°37.868 23.6513 0.009297 0.051258 -3.020363
2011-08-24 09:26:44 51°13.087 2°37.887 23.6872 0.009297 0.051257 -3.020363
2011-08-24 09:27:44 51°13.096 2°37.909 23.694 0.009297 0.051256 -3.020363
2011-08-24 09:28:44 51°13.105 2°37.932 23.6877 0.001998 0.01717 -3.020363
2011-08-24 09:29:44 51°13.12 2°37.949 23.7053 0.009297 0.051257 -3.020363
2011-08-24 09:30:44 51°13.145 2°37.947 23.7361 0.009297 0.051257 -3.020363
2011-08-24 09:31:44 51°13.163 2°37.914 23.7374 0.009297 0.051258 -3.020363
2011-08-24 09:32:44 51°13.151 2°37.873 23.6932 0.008475 0.047253 -3.020363
2011-08-24 09:33:44 51°13.131 2°37.862 23.7206 0.009297 0.051255 -3.020363
2011-08-24 09:34:44 51°13.113 2°37.858 23.7322 0.009297 0.051251 -3.020363
2011-08-24 09:35:44 51°13.103 2°37.853 23.739 0.009297 0.051245 -3.020363
2011-08-24 09:36:44 51°13.097 2°37.845 23.7766 0.009297 0.051238 -3.020363
2011-08-24 09:37:44 51°13.094 2°37.837 23.7623 0.009297 0.051228 -3.020363
2011-08-24 09:38:44 51°13.093 2°37.829 23.7772 0.009297 0.051216 -3.020363
2011-08-24 09:39:44 51°13.093 2°37.824 23.8158 0.009297 0.051204 -3.020363
2011-08-24 09:40:44 51°13.091 2°37.823 23.7986 0.009297 0.051191 -3.020363
2011-08-24 09:41:44 51°13.086 2°37.816 23.7792 0.009297 0.05118 -3.020363
2011-08-24 09:42:44 51°13.089 2°37.784 23.8369 0.009297 0.05117 -3.020363
2011-08-24 09:43:44 51°13.113 2°37.761 23.838 0.009297 0.051162 -3.020363
2011-08-24 09:44:44 51°13.138 2°37.757 23.9018 0.009503 0.052156 -3.020363
2011-08-24 09:45:44 51°13.156 2°37.758 23.8912 0.009297 0.051149 -3.020363
2011-08-24 09:46:44 51°13.171 2°37.764 23.8997 0.0094 0.051644 -3.020363
2011-08-24 09:47:44 51°13.184 2°37.773 23.9004 0.0094 0.051639 -3.020363
2011-08-24 09:48:44 51°13.195 2°37.784 23.9 0.0094 0.051635 -3.020363
2011-08-24 09:49:44 51°13.208 2°37.797 23.928 0.0094 0.051631 -3.020363
2011-08-24 09:50:44 51°13.246 2°37.768 23.8622 0.0094 0.051628 -3.020363
2011-08-24 09:51:44 51°13.287 2°37.735 23.8831 0.009297 0.051126 -3.020363
2011-08-24 09:52:44 51°13.345 2°37.755 23.8806 0.0094 0.051623 -3.020363
2011-08-24 09:53:44 51°13.358 2°37.851 23.8471 0.00868 0.04813 -3.020363
2011-08-24 09:54:44 51°13.31 2°37.91 23.9448 0.0094 0.05162 -3.020363
2011-08-24 09:55:44 51°13.235 2°37.947 23.9133 0.0094 0.05162 -3.020363
2011-08-24 09:56:44 51°13.161 2°37.938 23.9244 0.0094 0.051619 -3.020363
2011-08-24 09:57:44 51°13.102 2°37.927 23.9527 0.0094 0.05162 -3.020363
2011-08-24 09:58:44 51°13.069 2°37.928 23.9612 0.0094 0.051622 -3.020363
2011-08-24 09:59:44 51°13.051 2°37.931 23.9632 0.0094 0.051624 -3.020363
2011-08-24 10:00:44 51°13.041 2°37.941 23.9767 0.009297 0.051127 -3.020363
2011-08-24 10:01:44 51°13.036 2°37.954 23.9875 0.009297 0.05113 -3.020363
2011-08-24 10:02:44 51°13.033 2°37.97 24.0181 0.0094 0.051632 -3.020363
2011-08-24 10:03:44 51°12.998 2°37.983 24.0022 -999 -999 -3.020363
2011-08-24 10:04:44 51°12.946 2°38.001 24.0047 0.000353 0.010956 -3.020363
2011-08-24 10:05:44 51°12.903 2°38.019 24.0031 0.0094 0.05164 -3.020363
2011-08-24 10:06:44 51°12.876 2°38.034 24.0074 0.0094 0.051645 -3.020363
2011-08-24 10:07:44 51°12.861 2°38.048 24.0044 0.0094 0.051648 -3.020363
2011-08-24 10:08:44 51°12.852 2°38.064 24.0454 0.0094 0.051652 -3.020363
2011-08-24 10:09:44 51°12.833 2°38.063 24.039 0.0094 0.051655 -3.020363
2011-08-24 10:10:44 51°12.821 2°38.027 24.0168 0.0094 0.051659 -3.020363
2011-08-24 10:11:44 51°12.839 2°37.979 24.0936 0.0094 0.051663 -3.020363
2011-08-24 10:12:44 51°12.876 2°37.926 24.0988 0.0094 0.051668 -3.020363
2011-08-24 10:13:44 51°12.915 2°37.863 24.1079 0.0094 0.051671 -3.020363
2011-08-24 10:14:44 51°12.951 2°37.803 24.0843 0.0094 0.051675 -3.020363
2011-08-24 10:15:44 51°12.966 2°37.799 24.1216 0.0094 0.05168 -3.020363
2011-08-24 10:16:47 51°12.974 2°37.82 24.145 0.0094 0.051684 -3.020363
2011-08-24 10:17:46 51°12.983 2°37.837 24.1185 0.0094 0.051688 -3.020363
2011-08-24 10:18:44 51°12.99 2°37.854 24.1248 0.0094 0.051692 -3.020363
2011-08-24 10:19:44 51°12.998 2°37.872 24.1587 0.009297 0.051196 -3.020363
2011-08-24 10:20:44 51°13.006 2°37.89 24.1525 0.009297 0.0512 -3.020363
2011-08-24 10:21:44 51°13.016 2°37.906 24.1767 0.009297 0.051203 -3.020363
2011-08-24 10:22:44 51°13.025 2°37.924 24.1642 0.009297 0.051205 -3.020363
2011-08-24 10:23:44 51°13.034 2°37.94 24.179 0.009297 0.051207 -3.020363
2011-08-24 10:24:44 51°13.043 2°37.956 24.1761 0.0094 0.051711 -3.020363
2011-08-24 10:25:44 51°13.051 2°37.974 24.2015 0.0094 0.051713 -3.020363
2011-08-24 10:26:44 51°13.06 2°37.991 24.1962 0.009297 0.051214 -3.020363
2011-08-24 10:27:44 51°13.079 2°37.994 24.2109 0.009297 0.051217 -3.020363
2011-08-24 10:28:44 51°13.098 2°37.973 24.2237 0.009297 0.051219 -3.020363
2011-08-24 10:29:44 51°13.107 2°37.943 24.2015 0.009297 0.051222 -3.020363
2011-08-24 10:30:44 51°13.113 2°37.929 24.1856 0.009297 0.051224 -3.020363
2011-08-24 10:31:44 51°13.12 2°37.928 24.2175 0.009297 0.051226 -3.020363
2011-08-24 10:32:44 51°13.131 2°37.934 24.2303 0.009297 0.051227 -3.020363
2011-08-24 10:33:44 51°13.145 2°37.945 24.2399 0.009297 0.051228 -3.020363
2011-08-24 10:34:44 51°13.159 2°37.956 24.2559 0.009297 0.05123 -3.020363
2011-08-24 10:35:44 51°13.178 2°37.954 24.2631 0.009297 0.051231 -3.020363
2011-08-24 10:36:44 51°13.196 2°37.923 24.2709 0.009297 0.051233 -3.020363
2011-08-24 10:37:44 51°13.193 2°37.881 24.2588 0.009297 0.051234 -3.020363
2011-08-24 10:38:44 51°13.163 2°37.856 24.2483 0.009092 0.050233 -3.020363
2011-08-24 10:39:44 51°13.121 2°37.842 24.2681 0.009297 0.051238 -3.020363
2011-08-24 10:40:44 51°13.088 2°37.843 24.2491 0.009297 0.051242 -3.020363
2011-08-24 10:41:44 51°13.069 2°37.85 24.2731 0.009297 0.051245 -3.020363
2011-08-24 10:42:44 51°13.057 2°37.86 24.2787 0.008989 0.049744 -3.020363
2011-08-24 10:43:44 51°13.051 2°37.873 24.2902 -999 -999 -3.020363
2011-08-24 10:44:44 51°13.047 2°37.887 24.2803 0.009297 0.051255 -3.020363
2011-08-24 10:45:44 51°13.046 2°37.903 24.3035 0.009297 0.051259 -3.020363
2011-08-24 10:46:44 51°13.046 2°37.92 24.3189 0.009297 0.051264 -3.020363
2011-08-24 10:47:44 51°13.047 2°37.937 24.3209 0.009297 0.051269 -3.020363
2011-08-24 10:48:44 51°13.049 2°37.955 24.3072 0.009297 0.051273 -3.020363
2011-08-24 10:49:44 51°13.052 2°37.972 24.3167 0.009297 0.051277 -3.020363
2011-08-24 10:50:44 51°13.056 2°37.99 24.3365 0.009297 0.051282 -3.020363
2011-08-24 10:51:44 51°13.04 2°38.009 24.3442 0.009297 0.051288 -3.020363
2011-08-24 10:52:44 51°13.012 2°37.997 24.3401 0.009297 0.051294 -3.020363
2011-08-24 10:53:44 51°12.997 2°37.972 24.3557 0.009297 0.051299 -3.020363
2011-08-24 10:54:44 51°12.991 2°37.953 24.3641 0.009297 0.051304 -3.020363
2011-08-24 10:55:44 51°12.992 2°37.944 24.3657 0.004363 0.02773 -3.020363
2011-08-24 10:56:44 51°12.997 2°37.943 24.3613 0.009297 0.051313 -3.020363
2011-08-24 10:57:44 51°13.006 2°37.947 24.4015 0.009297 0.051317 -3.020363
2011-08-24 10:58:44 51°13.022 2°37.932 24.3777 0.009297 0.05132 -3.020363
2011-08-24 10:59:44 51°13.057 2°37.897 24.3964 0.009297 0.051321 -3.020363
2011-08-24 11:00:44 51°13.101 2°37.854 24.4229 0.009297 0.051324 -3.020363
2011-08-24 11:01:44 51°13.125 2°37.809 24.4194 0.009297 0.051328 -3.020363
2011-08-24 11:02:44 51°13.132 2°37.768 24.4135 -999 -999 -3.020363
2011-08-24 11:03:44 51°13.14 2°37.773 24.4107 0.009297 0.051334 -3.020363
2011-08-24 11:04:47 51°13.151 2°37.804 24.4089 0.009297 0.051336 -3.020363
2011-08-24 11:05:45 51°13.152 2°37.802 24.4155 0.009297 0.051337 -3.020363
2011-08-24 11:06:44 51°13.147 2°37.805 24.4101 0.009297 0.051339 -3.020363
2011-08-24 11:07:44 51°13.144 2°37.816 24.4334 0.009297 0.05134 -3.020363
2011-08-24 11:08:44 51°13.144 2°37.829 24.4307 -999 -999 -3.020363
2011-08-24 11:09:44 51°13.14 2°37.846 24.438 0.009297 0.051345 -3.020363
2011-08-24 11:10:44 51°13.12 2°37.861 24.4332 0.009297 0.051348 -3.020363
2011-08-24 11:11:44 51°13.094 2°37.864 24.4572 0.009297 0.05135 -3.020363
2011-08-24 11:12:44 51°13.081 2°37.868 24.4494 0.009297 0.051353 -3.020363
2011-08-24 11:13:44 51°13.074 2°37.875 24.4723 0.009297 0.051356 -3.020363
2011-08-24 11:14:44 51°13.07 2°37.883 24.485 0.009297 0.05136 -3.020363
2011-08-24 11:15:44 51°13.067 2°37.893 24.48 0.009297 0.051363 -3.020363
2011-08-24 11:16:44 51°13.067 2°37.905 24.4702 0.009297 0.051366 -3.020363
2011-08-24 11:17:44 51°13.067 2°37.918 24.4935 0.009297 0.051369 -3.020363
2011-08-24 11:18:44 51°13.068 2°37.931 24.4676 0.009297 0.051371 -3.020363
2011-08-24 11:19:44 51°13.069 2°37.944 24.4899 0.009297 0.051375 -3.020363
2011-08-24 11:20:44 51°13.071 2°37.958 24.4665 0.009297 0.051379 -3.020363
2011-08-24 11:21:44 51°13.074 2°37.973 24.4943 0.009297 0.051383 -3.020363
2011-08-24 11:22:44 51°13.069 2°37.988 24.4703 0.009297 0.051387 -3.020363
2011-08-24 11:23:44 51°13.044 2°37.99 24.5044 0.009297 0.051393 -3.020363
2011-08-24 11:24:44 51°13.022 2°37.959 24.5013 -999 -999 -3.020363
2011-08-24 11:25:44 51°13.018 2°37.954 24.5349 0.009297 0.051401 -3.020363
2011-08-24 11:26:47 51°13.018 2°37.963 24.5161 -999 -999 -3.020363
2011-08-24 11:27:45 51°13.002 2°37.956 24.5419 0.009297 0.051408 -3.020363
2011-08-24 11:28:44 51°12.973 2°37.969 24.5287 0.00426 0.027274 -3.020363
2011-08-24 11:29:44 51°12.947 2°37.987 24.525 -999 -999 -3.020363
2011-08-24 11:30:44 51°12.929 2°38.001 24.5302 -999 -999 -3.020363
2011-08-24 11:31:44 51°12.906 2°38.008 24.5252 0.009297 0.051424 -3.020363
2011-08-24 11:32:44 51°12.876 2°37.965 24.5502 0.009297 0.051427 -3.020363
2011-08-24 11:33:44 51°12.892 2°37.886 24.5778 0.009297 0.05143 -3.020363
2011-08-24 11:34:44 51°12.933 2°37.839 24.5832 0.009297 0.051434 -3.020363
2011-08-24 11:35:44 51°12.96 2°37.821 24.546 0.009297 0.051437 -3.020363
2011-08-24 11:36:44 51°12.963 2°37.827 24.578 0.009297 0.051438 -3.020363
2011-08-24 11:37:44 51°12.967 2°37.834 24.5975 0.009297 0.051439 -3.020363
2011-08-24 11:38:44 51°12.972 2°37.842 24.5938 0.009297 0.051435 -3.020363
2011-08-24 11:39:44 51°12.976 2°37.85 24.6105 0.009297 0.051428 -3.020363
2011-08-24 11:40:44 51°12.982 2°37.858 24.6203 0.009297 0.051419 -3.020363
2011-08-24 11:41:44 51°12.987 2°37.864 24.5955 0.009297 0.051409 -3.020363
2011-08-24 11:42:44 51°12.993 2°37.87 24.6052 0.009297 0.051398 -3.020363
2011-08-24 11:43:44 51°12.999 2°37.876 24.6216 0.009297 0.051387 -3.020363
2011-08-24 11:44:44 51°13.005 2°37.883 24.602 0.009297 0.051376 -3.020363
2011-08-24 11:45:44 51°13.011 2°37.889 24.6208 0.009297 0.051363 -3.020363
2011-08-24 11:46:44 51°13.017 2°37.894 24.6232 0.009297 0.051349 -3.020363
2011-08-24 11:47:44 51°13.023 2°37.899 24.6434 0.009297 0.051335 -3.020363
2011-08-24 11:48:44 51°13.061 2°37.902 24.582 0.009297 0.051321 -3.020363
2011-08-24 11:49:44 51°13.086 2°37.976 24.6107 0.002204 0.018041 -3.020363
2011-08-24 11:50:44 51°13.057 2°38.036 24.5792 0.009297 0.051291 -3.020363
2011-08-24 11:51:44 51°13.02 2°38.045 24.6308 0.009297 0.051277 -3.020363
2011-08-24 11:52:44 51°12.991 2°38.037 24.6334 0.009297 0.051266 -3.020363
2011-08-24 11:53:44 51°12.967 2°38.031 24.645 0.009297 0.051257 -3.020363
2011-08-24 11:54:44 51°12.947 2°38.03 24.6235 0.009297 0.051249 -3.020363
2011-08-24 11:55:44 51°12.928 2°38.03 24.642 0.009297 0.051242 -3.020363
2011-08-24 11:56:44 51°12.911 2°38.031 24.6586 0.009297 0.051238 -3.020363
2011-08-24 11:57:44 51°12.879 2°37.974 24.6484 0.009297 0.051233 -3.020363
2011-08-24 11:58:44 51°12.895 2°37.886 24.6774 0.009297 0.05123 -3.020363
2011-08-24 11:59:44 51°12.926 2°37.846 24.6964 0.009297 0.051228 -3.020363
2011-08-24 12:00:44 51°12.944 2°37.833 24.6919 0.009297 0.051225 -3.020363
2011-08-24 12:01:44 51°12.956 2°37.829 24.6875 0.009297 0.051221 -3.020363
2011-08-24 12:02:44 51°12.965 2°37.826 24.711 -999 -999 -3.020363
2011-08-24 12:03:44 51°12.971 2°37.827 24.7082 0.009297 0.051202 -3.020363
2011-08-24 12:04:44 51°12.976 2°37.831 24.7169 0.009297 0.05119 -3.020363
2011-08-24 12:05:44 51°12.979 2°37.835 24.6978 0.009297 0.051177 -3.020363
2011-08-24 12:06:44 51°12.983 2°37.841 24.719 0.009297 0.051163 -3.020363
2011-08-24 12:07:44 51°12.986 2°37.846 24.7231 0.009606 0.05265 -3.020363
2011-08-24 12:08:44 51°12.988 2°37.852 24.6998 0.005288 0.03198 -3.020363
2011-08-24 12:09:44 51°12.99 2°37.857 24.7207 0.0094 0.051616 -3.020363
2011-08-24 12:10:44 51°12.993 2°37.862 24.7189 0.0094 0.0516 -3.020363
2011-08-24 12:11:44 51°13.001 2°37.864 24.7304 0.0094 0.051584 -3.020363
2011-08-24 12:12:44 51°13.011 2°37.864 24.7208 0.0094 0.051567 -3.020363
2011-08-24 12:13:44 51°13.019 2°37.865 24.7361 0.0094 0.051549 -3.020363
2011-08-24 12:14:44 51°13.029 2°37.863 24.7436 0.0094 0.051532 -3.020363
2011-08-24 12:15:44 51°13.072 2°37.84 24.7325 0.0094 0.051515 -3.020363
2011-08-24 12:16:44 51°13.134 2°37.793 24.7842 0.0094 0.051497 -3.020363
2011-08-24 12:17:44 51°13.192 2°37.754 24.7585 0.0094 0.051482 -3.020363
2011-08-24 12:18:44 51°13.238 2°37.777 24.705 0.008886 0.048984 -3.020363
2011-08-24 12:19:44 51°13.241 2°37.858 24.7599 0.0094 0.051458 -3.020363
2011-08-24 12:20:44 51°13.223 2°37.915 24.7515 0.0094 0.051448 -3.020363
2011-08-24 12:21:44 51°13.203 2°37.952 24.7492 0.0094 0.05144 -3.020363
2011-08-24 12:22:44 51°13.184 2°37.978 24.7594 0.0094 0.051434 -3.020363
2011-08-24 12:23:44 51°13.15 2°38.009 24.7639 -999 -999 -3.020363
2011-08-24 12:24:44 51°13.079 2°38.047 24.7415 0.0094 0.051427 -3.020363
2011-08-24 12:25:44 51°12.979 2°38.073 24.756 0.0094 0.051424 -3.020363
2011-08-24 12:26:44 51°12.87 2°38.069 24.7576 0.0094 0.051422 -3.020363
2011-08-24 12:27:44 51°12.763 2°38.029 24.7788 0.0094 0.051417 -3.020363
2011-08-24 12:28:44 51°12.657 2°37.971 24.7913 0.0094 0.05141 -3.020363
2011-08-24 12:29:44 51°12.549 2°37.923 24.787 0.0094 0.051404 -3.020363
2011-08-24 12:30:44 51°12.45 2°37.847 24.795 0.0094 0.051396 -3.020363
2011-08-24 12:31:44 51°12.355 2°37.753 24.8036 0.0094 0.051387 -3.020363
2011-08-24 12:32:44 51°12.258 2°37.662 24.7833 0.0094 0.051379 -3.020363
2011-08-24 12:33:44 51°12.158 2°37.581 24.8073 0.0094 0.051366 -3.020363
2011-08-24 12:34:44 51°12.059 2°37.492 24.798 0.0094 0.051351 -3.020363
2011-08-24 12:35:44 51°11.964 2°37.393 24.8252 0.0094 0.051335 -3.020363
2011-08-24 12:36:44 51°11.866 2°37.298 24.8185 0.009194 0.050329 -3.020363
2011-08-24 12:37:44 51°11.765 2°37.21 24.8124 0.0094 0.0513 -3.020363
2011-08-24 12:38:44 51°11.665 2°37.121 24.8181 0.0094 0.051282 -3.020363
2011-08-24 12:39:44 51°11.567 2°37.03 24.8144 0.009503 0.051759 -3.020363
2011-08-24 12:40:44 51°11.47 2°36.933 24.8298 0.009503 0.051743 -3.020363
2011-08-24 12:41:44 51°11.372 2°36.836 24.8158 0.009503 0.05173 -3.020363
2011-08-24 12:42:44 51°11.274 2°36.74 24.8324 0.009503 0.051721 -3.020363
2011-08-24 12:43:44 51°11.175 2°36.646 24.8315 0.009503 0.051713 -3.020363
2011-08-24 12:44:44 51°11.075 2°36.555 24.8627 0.009503 0.051707 -3.020363
2011-08-24 12:45:44 51°10.975 2°36.459 24.8502 0.009503 0.051702 -3.020363
2011-08-24 12:46:44 51°10.878 2°36.36 24.8516 0.009503 0.051698 -3.020363
2011-08-24 12:47:44 51°10.776 2°36.275 24.8537 0.009503 0.051694 -3.020363
2011-08-24 12:48:44 51°10.671 2°36.199 24.8533 0.009503 0.051692 -3.020363
2011-08-24 12:49:44 51°10.567 2°36.118 24.8684 0.009503 0.051691 -3.020363
2011-08-24 12:50:44 51°10.465 2°36.037 24.8563 0.009503 0.051689 -3.020363
2011-08-24 12:51:44 51°10.363 2°35.953 24.8738 0.009503 0.051689 -3.020363
2011-08-24 12:52:44 51°10.262 2°35.866 24.8576 0.009503 0.051689 -3.020363
2011-08-24 12:53:44 51°10.159 2°35.78 24.8773 0.009503 0.051691 -3.020363
2011-08-24 12:54:44 51°10.056 2°35.699 24.8766 0.009503 0.051692 -3.020363
2011-08-24 12:55:44 51°9.953 2°35.611 24.8711 0.009503 0.051694 -3.020363
2011-08-24 12:56:44 51°9.852 2°35.518 24.8916 0.009503 0.051696 -3.020363
2011-08-24 12:57:44 51°9.749 2°35.425 24.8962 0.009503 0.051698 -3.020363
2011-08-24 12:58:44 51°9.645 2°35.335 24.864 0.009503 0.051701 -3.020363
2011-08-24 12:59:44 51°9.539 2°35.25 24.9091 0.009503 0.051703 -3.020363
2011-08-24 13:00:44 51°9.434 2°35.16 24.8782 0.009503 0.051706 -3.020363
2011-08-24 13:01:44 51°9.33 2°35.068 24.923 0.009503 0.051709 -3.020363
2011-08-24 13:02:44 51°9.246 2°35.013 24.9052 0.009503 0.051712 -3.020363
2011-08-24 13:03:44 51°9.175 2°34.997 24.9462 0.009503 0.051715 -3.020363
2011-08-24 13:04:44 51°9.11 2°34.989 24.9281 0.009503 0.051718 -3.020363
2011-08-24 13:05:44 51°9.06 2°34.971 24.9276 0.009503 0.051719 -3.020363
2011-08-24 13:06:44 51°9.03 2°34.946 24.9348 0.009503 0.05172 -3.020363
2011-08-24 13:07:44 51°9.015 2°34.926 24.9345 0.009503 0.051721 -3.020363
2011-08-24 13:08:44 51°9.009 2°34.914 24.9313 0.009503 0.05172 -3.020363
2011-08-24 13:09:44 51°9.01 2°34.909 24.9561 0.009503 0.05172 -3.020363
2011-08-24 13:10:44 51°9.014 2°34.907 24.9652 0.009503 0.051718 -3.020363
2011-08-24 13:11:44 51°9.024 2°34.902 24.9489 0.009503 0.051717 -3.020363
2011-08-24 13:12:44 51°9.035 2°34.892 24.9626 0.009503 0.051715 -3.020363
2011-08-24 13:13:44 51°9.049 2°34.876 24.9581 0.009503 0.051713 -3.020363
2011-08-24 13:14:44 51°9.063 2°34.853 24.9581 0.009503 0.051711 -3.020363
2011-08-24 13:15:44 51°9.073 2°34.828 24.9604 0.009503 0.05171 -3.020363
2011-08-24 13:16:44 51°9.08 2°34.802 24.9681 0.009503 0.051709 -3.020363
2011-08-24 13:17:44 51°9.083 2°34.779 24.9747 0.009503 0.051708 -3.020363
2011-08-24 13:18:44 51°9.084 2°34.757 24.9484 0.009503 0.051707 -3.020363
2011-08-24 13:19:44 51°9.084 2°34.737 24.9879 0.009503 0.051706 -3.020363
2011-08-24 13:20:44 51°9.084 2°34.718 24.9707 0.009503 0.051705 -3.020363
2011-08-24 13:21:44 51°9.081 2°34.701 24.9918 0.009503 0.051704 -3.020363
2011-08-24 13:22:44 51°9.078 2°34.685 24.9722 0.009503 0.051703 -3.020363
2011-08-24 13:23:44 51°9.075 2°34.672 24.9962 0.009503 0.051702 -3.020363
2011-08-24 13:24:44 51°9.071 2°34.659 24.9828 0.009503 0.0517 -3.020363
2011-08-24 13:25:44 51°9.068 2°34.648 24.9775 0.009503 0.051698 -3.020363
2011-08-24 13:26:44 51°9.063 2°34.635 24.979 0.009503 0.051697 -3.020363
2011-08-24 13:27:44 51°9.058 2°34.628 24.9846 0.009503 0.051695 -3.020363
2011-08-24 13:28:44 51°9.04 2°34.647 24.9968 0.009503 0.051693 -3.020363
2011-08-24 13:29:44 51°8.998 2°34.668 25.0113 0.009503 0.051692 -3.020363
2011-08-24 13:30:44 51°8.945 2°34.69 24.9903 0.009503 0.051692 -3.020363
2011-08-24 13:31:44 51°8.893 2°34.713 25.0087 0.009503 0.051691 -3.020363
2011-08-24 13:32:44 51°8.851 2°34.73 25.0151 0.009503 0.051689 -3.020363
2011-08-24 13:33:44 51°8.817 2°34.739 25.0027 0.009503 0.051688 -3.020363
2011-08-24 13:34:44 51°8.79 2°34.742 25.0247 0.009503 0.051687 -3.020363
2011-08-24 13:35:44 51°8.764 2°34.742 25.015 0.009503 0.051686 -3.020363
2011-08-24 13:36:44 51°8.741 2°34.74 25.0125 0.009503 0.051685 -3.020363
2011-08-24 13:37:44 51°8.718 2°34.739 25.0208 0.009503 0.051683 -3.020363
2011-08-24 13:38:44 51°8.697 2°34.735 25.0133 0.009503 0.05168 -3.020363
2011-08-24 13:39:44 51°8.679 2°34.73 25.0225 0.009503 0.051676 -3.020363
2011-08-24 13:40:44 51°8.663 2°34.724 25.0325 0.009503 0.051671 -3.020363
2011-08-24 13:41:44 51°8.642 2°34.724 25.0295 0.009503 0.051665 -3.020363
2011-08-24 13:42:44 51°8.621 2°34.737 25.0504 0.009503 0.051659 -3.020363
2011-08-24 13:43:44 51°8.61 2°34.76 25.0476 0.009503 0.051653 -3.020363
2011-08-24 13:44:44 51°8.615 2°34.785 25.0527 0.009503 0.051648 -3.020363
2011-08-24 13:45:44 51°8.633 2°34.794 25.0554 0.009503 0.051642 -3.020363
2011-08-24 13:46:44 51°8.648 2°34.782 25.0637 0.009503 0.051633 -3.020363
2011-08-24 13:47:44 51°8.658 2°34.765 25.031 0.009503 0.05162 -3.020363
2011-08-24 13:48:44 51°8.664 2°34.747 25.0307 0.009503 0.051607 -3.020363
2011-08-24 13:49:44 51°8.666 2°34.73 25.0498 0.009503 0.051593 -3.020363
2011-08-24 13:50:44 51°8.667 2°34.714 25.0396 0.009503 0.05158 -3.020363
2011-08-24 13:51:44 51°8.667 2°34.699 25.0535 0.009503 0.051567 -3.020363
2011-08-24 13:52:44 51°8.665 2°34.684 25.0607 0.009503 0.051551 -3.020363
2011-08-24 13:53:44 51°8.663 2°34.671 25.0732 0.009503 0.051535 -3.020363
2011-08-24 13:54:44 51°8.661 2°34.661 25.0732 0.009503 0.051518 -3.020363
2011-08-24 13:55:44 51°8.658 2°34.65 25.0635 0.009503 0.0515 -3.020363
2011-08-24 13:56:44 51°8.654 2°34.639 25.0659 0.009503 0.051484 -3.020363
2011-08-24 13:57:44 51°8.65 2°34.629 25.0713 0.009503 0.051467 -3.020363
2011-08-24 13:58:44 51°8.647 2°34.619 25.0666 0.009606 0.05194 -3.020363
2011-08-24 13:59:44 51°8.644 2°34.609 25.0679 0.009606 0.051923 -3.020363
2011-08-24 14:00:44 51°8.646 2°34.595 25.0795 0.009606 0.051906 -3.020363
2011-08-24 14:01:44 51°8.673 2°34.548 25.1122 0.009606 0.05189 -3.020363
2011-08-24 14:02:44 51°8.692 2°34.5 25.0902 0.009606 0.051875 -3.020363
2011-08-24 14:03:44 51°8.703 2°34.46 25.1015 0.009606 0.051858 -3.020363
2011-08-24 14:04:44 51°8.71 2°34.428 25.1002 0.009606 0.051843 -3.020363
2011-08-24 14:05:44 51°8.715 2°34.403 25.106 0.009606 0.051831 -3.020363
2011-08-24 14:06:44 51°8.72 2°34.385 25.0909 0.009606 0.051817 -3.020363
2011-08-24 14:07:44 51°8.723 2°34.368 25.1208 0.009606 0.051802 -3.020363
2011-08-24 14:08:44 51°8.727 2°34.356 25.1129 0.009606 0.051785 -3.020363
2011-08-24 14:09:44 51°8.731 2°34.347 25.1138 0.009606 0.051769 -3.020363
2011-08-24 14:10:44 51°8.735 2°34.341 25.1111 0.009606 0.051753 -3.020363
2011-08-24 14:11:44 51°8.74 2°34.335 25.1295 0.009606 0.051737 -3.020363
2011-08-24 14:12:44 51°8.756 2°34.321 25.1247 0.009606 0.051722 -3.020363
2011-08-24 14:13:44 51°8.781 2°34.305 25.1199 0.009606 0.051708 -3.020363
2011-08-24 14:14:44 51°8.811 2°34.299 25.1008 0.009606 0.051696 -3.020363
2011-08-24 14:15:44 51°8.838 2°34.313 25.096 0.009606 0.051684 -3.020363
2011-08-24 14:16:44 51°8.852 2°34.348 25.078 0.009606 0.051672 -3.020363
2011-08-24 14:17:44 51°8.839 2°34.391 25.0685 0.009606 0.05166 -3.020363
2011-08-24 14:18:44 51°8.805 2°34.421 25.1118 0.009606 0.051649 -3.020363
2011-08-24 14:19:44 51°8.762 2°34.449 25.1177 0.009708 0.052127 -3.020363
2011-08-24 14:20:44 51°8.716 2°34.475 25.1265 0.009708 0.052123 -3.020363
2011-08-24 14:21:44 51°8.682 2°34.503 25.1306 0.009708 0.05212 -3.020363
2011-08-24 14:22:44 51°8.66 2°34.527 25.1259 0.009708 0.052117 -3.020363
2011-08-24 14:23:44 51°8.641 2°34.54 25.1331 0.009708 0.052116 -3.020363
2011-08-24 14:24:44 51°8.627 2°34.542 25.1408 0.009708 0.052115 -3.020363
2011-08-24 14:25:44 51°8.616 2°34.538 25.1449 0.009708 0.052115 -3.020363
2011-08-24 14:26:44 51°8.607 2°34.533 25.143 0.009708 0.052114 -3.020363
2011-08-24 14:27:44 51°8.602 2°34.529 25.1447 0.009708 0.052112 -3.020363
2011-08-24 14:28:44 51°8.597 2°34.524 25.1373 0.009708 0.052112 -3.020363
2011-08-24 14:29:44 51°8.595 2°34.518 25.1572 0.009708 0.052112 -3.020363
2011-08-24 14:30:44 51°8.596 2°34.509 25.1474 0.009708 0.052113 -3.020363
2011-08-24 14:31:44 51°8.598 2°34.5 25.1621 0.009708 0.052115 -3.020363
2011-08-24 14:32:44 51°8.594 2°34.519 25.1726 0.002306 0.018646 -3.020363
2011-08-24 14:33:44 51°8.606 2°34.547 25.1793 0.009708 0.052125 -3.020363
2011-08-24 14:34:44 51°8.628 2°34.55 25.1801 0.009708 0.052129 -3.020363
2011-08-24 14:35:44 51°8.648 2°34.533 25.1765 0.009708 0.052128 -3.020363
2011-08-24 14:36:44 51°8.66 2°34.511 25.1729 0.009708 0.052123 -3.020363
2011-08-24 14:37:44 51°8.666 2°34.49 25.1739 0.009708 0.052115 -3.020363
2011-08-24 14:38:44 51°8.67 2°34.47 25.1778 0.009708 0.052105 -3.020363
2011-08-24 14:39:44 51°8.672 2°34.454 25.1438 0.009708 0.052095 -3.020363
2011-08-24 14:40:44 51°8.674 2°34.441 25.1704 0.009708 0.052084 -3.020363
2011-08-24 14:41:44 51°8.676 2°34.431 25.1808 0.009708 0.052071 -3.020363
2011-08-24 14:42:44 51°8.678 2°34.422 25.194 0.009708 0.052058 -3.020363
2011-08-24 14:43:44 51°8.679 2°34.416 25.1605 0.009708 0.052044 -3.020363
2011-08-24 14:44:44 51°8.68 2°34.41 25.1916 0.009708 0.05203 -3.020363
2011-08-24 14:45:44 51°8.682 2°34.405 25.1786 0.009708 0.052016 -3.020363
2011-08-24 14:46:44 51°8.683 2°34.401 25.1784 0.009708 0.052003 -3.020363
2011-08-24 14:47:44 51°8.683 2°34.396 25.1882 0.009708 0.051994 -3.020363
2011-08-24 14:48:44 51°8.685 2°34.39 25.1809 0.009708 0.051986 -3.020363
2011-08-24 14:49:44 51°8.685 2°34.385 25.186 0.009708 0.051981 -3.020363
2011-08-24 14:50:44 51°8.686 2°34.381 25.1906 0.009708 0.051976 -3.020363
2011-08-24 14:51:44 51°8.686 2°34.377 25.1772 0.009708 0.051972 -3.020363
2011-08-24 14:52:44 51°8.685 2°34.373 25.1835 0.009708 0.051969 -3.020363
2011-08-24 14:53:44 51°8.685 2°34.37 25.1747 0.009708 0.051966 -3.020363
2011-08-24 14:54:44 51°8.684 2°34.368 25.1868 0.009708 0.051965 -3.020363
2011-08-24 14:55:44 51°8.684 2°34.366 25.1909 0.009708 0.051964 -3.020363
2011-08-24 14:56:44 51°8.685 2°34.362 25.1646 0.009708 0.051964 -3.020363
2011-08-24 14:57:46 51°8.707 2°34.349 25.1133 0.009708 0.051965 -3.020363
2011-08-24 14:58:44 51°8.746 2°34.394 25.1316 0.009708 0.051966 -3.020363
2011-08-24 14:59:44 51°8.727 2°34.47 25.18 0.009708 0.051967 -3.020363
2011-08-24 15:00:44 51°8.69 2°34.52 25.1886 0.009708 0.051971 -3.020363
2011-08-24 15:01:44 51°8.649 2°34.557 25.1885 0.009708 0.051975 -3.020363
2011-08-24 15:02:44 51°8.615 2°34.578 25.174 0.009708 0.05198 -3.020363
2011-08-24 15:03:44 51°8.59 2°34.589 25.1943 0.009708 0.051985 -3.020363
2011-08-24 15:04:44 51°8.576 2°34.59 25.1714 0.009708 0.051988 -3.020363
2011-08-24 15:05:44 51°8.565 2°34.592 25.1803 0.009708 0.051991 -3.020363
2011-08-24 15:06:44 51°8.557 2°34.595 25.1845 0.009708 0.051992 -3.020363
2011-08-24 15:07:44 51°8.552 2°34.597 25.2051 0.009708 0.051993 -3.020363
2011-08-24 15:08:44 51°8.546 2°34.6 25.1922 0.009708 0.051993 -3.020363
2011-08-24 15:09:44 51°8.542 2°34.603 25.2015 0.009708 0.051993 -3.020363
2011-08-24 15:10:44 51°8.539 2°34.606 25.2049 0.009708 0.051994 -3.020363
2011-08-24 15:11:44 51°8.536 2°34.609 25.2135 0.009708 0.051997 -3.020363
2011-08-24 15:12:44 51°8.533 2°34.612 25.2159 0.009708 0.051999 -3.020363
2011-08-24 15:13:44 51°8.529 2°34.614 25.2114 0.009708 0.052002 -3.020363
2011-08-24 15:14:44 51°8.525 2°34.617 25.2191 0.009708 0.052004 -3.020363
2011-08-24 15:15:44 51°8.522 2°34.619 25.2064 0.009708 0.052006 -3.020363
2011-08-24 15:16:44 51°8.515 2°34.629 25.2161 0.009708 0.052006 -3.020363
2011-08-24 15:17:44 51°8.503 2°34.647 25.2217 0.009708 0.052008 -3.020363
2011-08-24 15:18:47 51°8.513 2°34.618 25.2176 0.009708 0.052012 -3.020363
2011-08-24 15:19:45 51°8.521 2°34.592 25.2146 0.009708 0.052018 -3.020363
2011-08-24 15:20:44 51°8.525 2°34.58 25.2285 0.009708 0.052024 -3.020363
2011-08-24 15:21:44 51°8.527 2°34.574 25.2362 0.009708 0.052032 -3.020363
2011-08-24 15:22:44 51°8.525 2°34.579 25.2372 0.009708 0.052038 -3.020363
2011-08-24 15:23:44 51°8.515 2°34.596 25.2214 0.009708 0.052046 -3.020363
2011-08-24 15:24:44 51°8.501 2°34.616 25.2161 0.009708 0.052054 -3.020363
2011-08-24 15:25:44 51°8.488 2°34.63 25.2281 0.009708 0.052063 -3.020363
2011-08-24 15:26:44 51°8.481 2°34.636 25.2206 0.009708 0.052073 -3.020363
2011-08-24 15:27:44 51°8.482 2°34.635 25.2409 0.009708 0.052083 -3.020363
2011-08-24 15:28:44 51°8.498 2°34.606 25.2367 0.009708 0.052091 -3.020363
2011-08-24 15:29:44 51°8.506 2°34.578 25.2404 0.009708 0.0521 -3.020363
2011-08-24 15:30:44 51°8.51 2°34.554 25.2533 0.009708 0.05211 -3.020363
2011-08-24 15:31:44 51°8.512 2°34.551 25.2513 0.009708 0.052119 -3.020363
2011-08-24 15:32:44 51°8.51 2°34.559 25.2567 0.009708 0.052128 -3.020363
2011-08-24 15:33:44 51°8.507 2°34.566 25.2611 0.009708 0.052137 -3.020363
2011-08-24 15:34:44 51°8.502 2°34.572 25.2555 0.009708 0.052145 -3.020363
2011-08-24 15:35:44 51°8.497 2°34.576 25.2565 0.009708 0.052154 -3.020363
2011-08-24 15:36:44 51°8.493 2°34.579 25.2563 0.009708 0.052163 -3.020363
2011-08-24 15:37:44 51°8.487 2°34.584 25.2712 0.009708 0.052172 -3.020363
2011-08-24 15:38:44 51°8.474 2°34.605 25.2705 0.009708 0.052181 -3.020363
2011-08-24 15:39:44 51°8.464 2°34.642 25.2793 0.009708 0.05219 -3.020363
2011-08-24 15:40:44 51°8.47 2°34.683 25.2772 0.005493 0.032607 -3.020363
2011-08-24 15:41:44 51°8.481 2°34.712 25.2962 0.009708 0.052207 -3.020363
2011-08-24 15:42:44 51°8.497 2°34.736 25.2922 0.009606 0.051723 -3.020363
2011-08-24 15:43:44 51°8.516 2°34.755 25.2902 0.009606 0.051723 -3.020363
2011-08-24 15:44:44 51°8.535 2°34.767 25.2973 0.009606 0.051722 -3.020363
2011-08-24 15:45:44 51°8.553 2°34.772 25.2871 0.009606 0.05172 -3.020363
2011-08-24 15:46:44 51°8.57 2°34.769 25.2926 0.009606 0.051719 -3.020363
2011-08-24 15:47:44 51°8.584 2°34.763 25.3049 0.009606 0.051718 -3.020363
2011-08-24 15:48:44 51°8.597 2°34.755 25.302 0.009606 0.051718 -3.020363
2011-08-24 15:49:44 51°8.616 2°34.749 25.2763 0.009606 0.051718 -3.020363
2011-08-24 15:50:44 51°8.642 2°34.75 25.2966 0.009606 0.051719 -3.020363
2011-08-24 15:51:44 51°8.669 2°34.775 25.2878 0.009606 0.051719 -3.020363
2011-08-24 15:52:44 51°8.679 2°34.823 25.2672 0.009606 0.051719 -3.020363
2011-08-24 15:53:44 51°8.668 2°34.861 25.2795 0.009606 0.051721 -3.020363
2011-08-24 15:54:44 51°8.657 2°34.884 25.2969 0.009606 0.051723 -3.020363
2011-08-24 15:55:44 51°8.649 2°34.896 25.2791 0.009606 0.051729 -3.020363
2011-08-24 15:56:44 51°8.645 2°34.901 25.2993 0.009606 0.051737 -3.020363
2011-08-24 15:57:44 51°8.643 2°34.907 25.2934 0.009606 0.051745 -3.020363
2011-08-24 15:58:44 51°8.641 2°34.913 25.2969 0.009606 0.051754 -3.020363
2011-08-24 15:59:44 51°8.651 2°34.911 25.2908 0.009606 0.051763 -3.020363
2011-08-24 16:00:44 51°8.659 2°34.902 25.3012 0.009606 0.051773 -3.020363
2011-08-24 16:01:44 51°8.662 2°34.899 25.2797 0.009606 0.051783 -3.020363
2011-08-24 16:02:44 51°8.658 2°34.912 25.311 0.009606 0.051794 -3.020363
2011-08-24 16:03:44 51°8.655 2°34.922 25.2782 0.009606 0.051804 -3.020363
2011-08-24 16:04:44 51°8.65 2°34.932 25.32 0.009606 0.051814 -3.020363
2011-08-24 16:05:44 51°8.647 2°34.941 25.3202 0.009606 0.051825 -3.020363
2011-08-24 16:06:44 51°8.646 2°34.951 25.3225 0.009606 0.051835 -3.020363
2011-08-24 16:07:44 51°8.643 2°34.96 25.3207 0.009606 0.051845 -3.020363
2011-08-24 16:08:44 51°8.642 2°34.971 25.3162 0.009606 0.051855 -3.020363
2011-08-24 16:09:44 51°8.641 2°34.981 25.316 0.009606 0.051864 -3.020363
2011-08-24 16:10:44 51°8.641 2°34.993 25.3391 0.009606 0.051872 -3.020363
2011-08-24 16:11:44 51°8.641 2°35.004 25.3268 0.009606 0.051882 -3.020363
2011-08-24 16:12:44 51°8.64 2°35.014 25.3373 0.009606 0.051891 -3.020363
2011-08-24 16:13:44 51°8.639 2°35.025 25.3365 0.009606 0.0519 -3.020363
2011-08-24 16:14:44 51°8.638 2°35.036 25.3375 0.009606 0.051909 -3.020363
2011-08-24 16:15:44 51°8.637 2°35.047 25.3403 0.009606 0.051917 -3.020363
2011-08-24 16:16:44 51°8.623 2°35.061 25.3335 0.009606 0.051926 -3.020363
2011-08-24 16:17:44 51°8.583 2°35.053 25.3427 0.009606 0.051933 -3.020363
2011-08-24 16:18:44 51°8.552 2°35.013 25.3465 0.009606 0.051938 -3.020363
2011-08-24 16:19:44 51°8.546 2°34.974 25.3506 0.009606 0.051944 -3.020363
2011-08-24 16:20:44 51°8.55 2°34.962 25.3513 0.009606 0.051947 -3.020363
2011-08-24 16:21:44 51°8.555 2°34.967 25.3366 0.009606 0.05195 -3.020363
2011-08-24 16:22:44 51°8.558 2°34.978 25.376 0.009606 0.051951 -3.020363
2011-08-24 16:23:44 51°8.557 2°34.991 25.3659 0.009606 0.051953 -3.020363
2011-08-24 16:24:44 51°8.555 2°35.007 25.3619 0.009606 0.051956 -3.020363
2011-08-24 16:25:44 51°8.555 2°35.02 25.3699 0.009606 0.051958 -3.020363
2011-08-24 16:26:44 51°8.573 2°35.037 25.3724 0.009606 0.05196 -3.020363
2011-08-24 16:27:44 51°8.605 2°35.049 25.3728 0.009606 0.051963 -3.020363
2011-08-24 16:28:44 51°8.642 2°35.052 25.3717 0.009606 0.051965 -3.020363
2011-08-24 16:29:44 51°8.68 2°35.049 25.3792 0.009606 0.051968 -3.020363
2011-08-24 16:30:44 51°8.717 2°35.038 25.3735 0.009606 0.051971 -3.020363
2011-08-24 16:31:44 51°8.743 2°35.033 25.3552 0.009606 0.051973 -3.020363
2011-08-24 16:32:44 51°8.757 2°35.031 25.366 0.009606 0.051975 -3.020363
2011-08-24 16:33:44 51°8.765 2°35.034 25.3665 0.009606 0.051977 -3.020363
2011-08-24 16:34:44 51°8.769 2°35.043 25.373 0.009606 0.051979 -3.020363
2011-08-24 16:35:44 51°8.771 2°35.056 25.391 0.009606 0.051982 -3.020363
2011-08-24 16:36:44 51°8.788 2°35.052 25.3847 0.009606 0.051984 -3.020363
2011-08-24 16:37:44 51°8.802 2°35.003 25.3782 0.009606 0.051986 -3.020363
2011-08-24 16:38:44 51°8.797 2°34.946 25.3752 0.009606 0.051988 -3.020363
2011-08-24 16:39:44 51°8.781 2°34.914 25.3728 0.009606 0.051989 -3.020363
2011-08-24 16:40:44 51°8.762 2°34.914 25.3644 0.009606 0.051989 -3.020363
2011-08-24 16:41:44 51°8.743 2°34.93 25.369 0.009606 0.051989 -3.020363
2011-08-24 16:42:44 51°8.72 2°34.947 25.3695 0.009606 0.051991 -3.020363
2011-08-24 16:43:44 51°8.692 2°34.968 25.3838 0.009606 0.051994 -3.020363
2011-08-24 16:44:44 51°8.662 2°34.992 25.3777 0.009606 0.051997 -3.020363
2011-08-24 16:45:45 51°8.672 2°35.002 25.358 0.009606 0.052001 -3.020363
2011-08-24 16:46:44 51°8.681 2°35.007 25.3843 0.009606 0.052005 -3.020363
2011-08-24 16:47:44 51°8.685 2°35.02 25.4016 0.009606 0.052011 -3.020363
2011-08-24 16:48:44 51°8.688 2°35.036 25.3877 0.009606 0.052019 -3.020363
2011-08-24 16:49:44 51°8.688 2°35.054 25.406 0.009606 0.052026 -3.020363
2011-08-24 16:50:44 51°8.688 2°35.071 25.4027 0.009503 0.051543 -3.020363
2011-08-24 16:51:44 51°8.687 2°35.089 25.4095 0.009503 0.051551 -3.020363
2011-08-24 16:52:44 51°8.685 2°35.108 25.4013 0.009503 0.051558 -3.020363
2011-08-24 16:53:44 51°8.684 2°35.128 25.4124 0.009503 0.051566 -3.020363
2011-08-24 16:54:44 51°8.673 2°35.152 25.4041 0.009503 0.051574 -3.020363
2011-08-24 16:55:44 51°8.636 2°35.156 25.4159 0.009503 0.051582 -3.020363
2011-08-24 16:56:44 51°8.609 2°35.119 25.4292 -999 -999 -3.020363
2011-08-24 16:57:44 51°8.61 2°35.091 25.4369 0.009503 0.051588 -3.020363
2011-08-24 16:58:44 51°8.625 2°35.075 25.4308 0.009503 0.051591 -3.020363
2011-08-24 16:59:44 51°8.647 2°35.061 25.4371 0.009503 0.051592 -3.020363
2011-08-24 17:00:44 51°8.674 2°35.056 25.4352 0.009503 0.051593 -3.020363
2011-08-24 17:01:44 51°8.71 2°35.046 25.452 0.009503 0.051595 -3.020363
2011-08-24 17:02:44 51°8.756 2°35.023 25.4477 0.009503 0.051597 -3.020363
2011-08-24 17:03:44 51°8.805 2°34.994 25.4489 0.009503 0.051599 -3.020363
2011-08-24 17:04:44 51°8.846 2°34.989 25.4575 0.009503 0.051601 -3.020363
2011-08-24 17:05:44 51°8.887 2°35.022 25.4214 0.009503 0.051604 -3.020363
2011-08-24 17:06:44 51°8.904 2°35.099 25.4188 0.009503 0.051607 -3.020363
2011-08-24 17:07:44 51°8.89 2°35.159 25.4273 0.009503 0.05161 -3.020363
2011-08-24 17:08:44 51°8.875 2°35.199 25.4542 0.009503 0.051615 -3.020363
2011-08-24 17:09:44 51°8.853 2°35.24 25.4493 0.009503 0.051622 -3.020363
2011-08-24 17:10:44 51°8.829 2°35.279 25.4258 0.009503 0.051631 -3.020363
2011-08-24 17:11:44 51°8.813 2°35.306 25.4468 0.009503 0.051639 -3.020363
2011-08-24 17:12:44 51°8.802 2°35.331 25.4635 0.009503 0.051648 -3.020363
2011-08-24 17:13:44 51°8.795 2°35.354 25.4369 0.009503 0.051656 -3.020363
2011-08-24 17:14:44 51°8.79 2°35.378 25.444 0.009503 0.051663 -3.020363
2011-08-24 17:15:44 51°8.786 2°35.401 25.4623 0.009503 0.051671 -3.020363
2011-08-24 17:16:44 51°8.784 2°35.426 25.466 0.009503 0.051679 -3.020363
2011-08-24 17:17:44 51°8.783 2°35.451 25.4525 0.009503 0.051686 -3.020363
2011-08-24 17:18:44 51°8.781 2°35.478 25.4507 0.009503 0.051693 -3.020363
2011-08-24 17:19:44 51°8.78 2°35.504 25.4705 0.009503 0.051701 -3.020363
2011-08-24 17:20:44 51°8.781 2°35.532 25.4616 0.009503 0.051709 -3.020363
2011-08-24 17:21:44 51°8.783 2°35.558 25.456 0.009503 0.051717 -3.020363
2011-08-24 17:22:44 51°8.773 2°35.608 25.4992 0.009503 0.051726 -3.020363
2011-08-24 17:23:44 51°8.799 2°35.726 25.4696 0.009503 0.051735 -3.020363
2011-08-24 17:24:44 51°8.882 2°35.955 25.4684 0.009503 0.051743 -3.020363
2011-08-24 17:25:44 51°8.988 2°36.243 25.4736 0.009503 0.051749 -3.020363
2011-08-24 17:26:44 51°9.084 2°36.55 25.4591 0.009503 0.051753 -3.020363
2011-08-24 17:27:44 51°9.167 2°36.872 25.4935 0.009503 0.051755 -3.020363
2011-08-24 17:28:44 51°9.241 2°37.193 25.4594 0.009503 0.051756 -3.020363
2011-08-24 17:29:44 51°9.319 2°37.512 25.4693 0.009503 0.051756 -3.020363
2011-08-24 17:30:44 51°9.396 2°37.832 25.4872 0.009503 0.051754 -3.020363
2011-08-24 17:31:44 51°9.476 2°38.146 25.4798 0.009503 0.051749 -3.020363
2011-08-24 17:32:44 51°9.555 2°38.462 25.4928 0.009503 0.051742 -3.020363
2011-08-24 17:33:44 51°9.631 2°38.783 25.5079 0.009503 0.051732 -3.020363
2011-08-24 17:34:44 51°9.714 2°39.103 25.5021 0.009503 0.051723 -3.020363
2011-08-24 17:35:44 51°9.79 2°39.431 25.5026 0.009503 0.051712 -3.020363
2011-08-24 17:36:44 51°9.872 2°39.756 25.5118 0.009503 0.0517 -3.020363
2011-08-24 17:37:44 51°9.957 2°40.072 25.523 0.009503 0.051688 -3.020363
2011-08-24 17:38:44 51°10.04 2°40.396 25.5372 0.009503 0.051674 -3.020363
2011-08-24 17:39:44 51°10.122 2°40.718 25.5856 0.009503 0.051661 -3.020363
2011-08-24 17:40:44 51°10.209 2°41.038 25.4915 0.009503 0.05165 -3.020363
2011-08-24 17:41:44 51°10.28 2°41.359 25.5593 0.009503 0.05164 -3.020363
2011-08-24 17:42:44 51°10.368 2°41.675 25.5072 0.009503 0.051632 -3.020363
2011-08-24 17:43:44 51°10.458 2°41.992 25.5389 0.009503 0.051625 -3.020363
2011-08-24 17:44:44 51°10.543 2°42.312 25.5506 0.009503 0.051617 -3.020363
2011-08-24 17:45:44 51°10.636 2°42.627 25.5003 0.009503 0.051612 -3.020363
2011-08-24 17:46:44 51°10.721 2°42.947 25.5453 0.009503 0.051607 -3.020363
2011-08-24 17:47:44 51°10.813 2°43.263 25.5481 0.009503 0.051604 -3.020363
2011-08-24 17:48:44 51°10.901 2°43.579 25.5778 0.009503 0.051601 -3.020363
2011-08-24 17:49:44 51°10.994 2°43.895 25.5497 0.009503 0.051599 -3.020363
2011-08-24 17:50:44 51°11.084 2°44.212 25.5377 0.009503 0.051597 -3.020363
2011-08-24 17:51:44 51°11.16 2°44.537 25.5233 0.009503 0.051596 -3.020363
2011-08-24 17:52:44 51°11.24 2°44.861 25.5284 0.009503 0.051595 -3.020363
2011-08-24 17:53:44 51°11.333 2°45.178 25.5367 0.009503 0.051595 -3.020363
2011-08-24 17:54:44 51°11.419 2°45.499 25.531 0.009503 0.051595 -3.020363
2011-08-24 17:55:44 51°11.509 2°45.819 25.5682 0.009503 0.051594 -3.020363
2011-08-24 17:56:44 51°11.593 2°46.142 25.5444 0.009503 0.051595 -3.020363
2011-08-24 17:57:44 51°11.677 2°46.461 25.5536 0.009503 0.051594 -3.020363
2011-08-24 17:58:44 51°11.765 2°46.776 25.6267 0.009503 0.051594 -3.020363
2011-08-24 17:59:44 51°11.85 2°47.093 25.5984 0.009503 0.051594 -3.020363
2011-08-24 18:00:44 51°11.937 2°47.409 25.5962 0.009503 0.051594 -3.020363
2011-08-24 18:01:44 51°12.038 2°47.714 25.5867 0.009503 0.051594 -3.020363
2011-08-24 18:02:44 51°12.142 2°48.015 25.5713 0.009503 0.051595 -3.020363
2011-08-24 18:03:44 51°12.24 2°48.318 25.6182 0.009503 0.051595 -3.020363
2011-08-24 18:04:44 51°12.353 2°48.609 25.6055 0.009503 0.051595 -3.020363
2011-08-24 18:05:44 51°12.466 2°48.901 25.6143 0.009503 0.051595 -3.020363
2011-08-24 18:06:44 51°12.576 2°49.201 25.5903 0.009503 0.051594 -3.020363
2011-08-24 18:07:44 51°12.686 2°49.501 25.6429 0.009503 0.051596 -3.020363
2011-08-24 18:08:44 51°12.802 2°49.796 25.6177 0.009503 0.051596 -3.020363
2011-08-24 18:09:44 51°12.915 2°50.095 25.5881 0.009503 0.051596 -3.020363
2011-08-24 18:10:44 51°13.023 2°50.395 25.6349 0.009503 0.051596 -3.020363
2011-08-24 18:11:44 51°13.133 2°50.698 25.6182 0.009503 0.051596 -3.020363
2011-08-24 18:12:44 51°13.243 2°51 25.6698 0.009503 0.051596 -3.020363
2011-08-24 18:13:44 51°13.359 2°51.298 25.6463 0.009503 0.051595 -3.020363
2011-08-24 18:14:44 51°13.473 2°51.598 25.6425 0.009503 0.051595 -3.020363
2011-08-24 18:15:44 51°13.588 2°51.898 25.5993 0.009503 0.051595 -3.020363
2011-08-24 18:16:44 51°13.708 2°52.192 25.6542 0.009503 0.051596 -3.020363
2011-08-24 18:17:44 51°13.83 2°52.484 25.6287 0.009503 0.051597 -3.020363
2011-08-24 18:18:44 51°13.955 2°52.773 25.7001 0.009503 0.051597 -3.020363
2011-08-24 18:19:44 51°14.079 2°53.058 25.6084 0.009503 0.051592 -3.020363
2011-08-24 18:20:44 51°14.199 2°53.354 25.6992 0.009503 0.051597 -3.020363
2011-08-24 18:21:44 51°14.306 2°53.654 25.7042 0.009503 0.051597 -3.020363
2011-08-24 18:22:44 51°14.407 2°53.93 25.6561 0.009503 0.051598 -3.020363
2011-08-24 18:23:44 51°14.493 2°54.154 25.665 0.009503 0.051599 -3.020363
2011-08-24 18:24:44 51°14.56 2°54.337 25.662 0.009503 0.0516 -3.020363
2011-08-24 18:25:44 51°14.613 2°54.496 25.6704 0.009503 0.051601 -3.020363
2011-08-24 18:26:44 51°14.661 2°54.665 25.654 0.009503 0.051602 -3.020363
2011-08-24 18:27:44 51°14.659 2°54.818 25.6533 0.009503 0.051603 -3.020363
2011-08-24 18:28:44 51°14.636 2°54.915 25.6834 0.009503 0.051605 -3.020363
2011-08-24 18:29:44 51°14.693 2°55.021 25.7158 0.009503 0.051611 -3.020363
2011-08-24 18:30:44 51°14.742 2°54.945 25.7146 0.009503 0.051616 -3.020363
2011-08-24 18:31:44 51°14.679 2°54.931 25.6792 0.009503 0.051619 -3.020363
2011-08-24 18:32:44 51°14.555 2°55.055 25.6714 0.009503 0.051623 -3.020363
2011-08-24 18:33:44 51°14.378 2°55.2 25.6529 0.009503 0.051629 -3.020363
2011-08-24 18:34:47 51°14.226 2°55.325 25.6805 0.009503 0.051634 -3.020363
2011-08-24 18:35:47 51°14.116 2°55.412 25.6915 0.009503 0.05164 -3.020363
2011-08-24 18:36:47 51°14.003 2°55.497 25.6925 0.009503 0.051646 -3.020363
2011-08-24 18:37:47 51°13.891 2°55.579 25.6875 0.009503 0.051652 -3.020363
2011-08-24 18:38:45 51°13.8 2°55.659 25.7006 0.009503 0.051657 -3.020363
2011-08-24 18:39:44 51°13.734 2°55.751 25.7007 0.009503 0.051663 -3.020363
2011-08-24 18:40:44 51°13.689 2°55.834 25.6991 0.009503 0.051669 -3.020363
2011-08-24 18:41:44 51°13.652 2°55.913 25.7113 0.009503 0.051673 -3.020363
2011-08-24 18:42:44 51°13.635 2°55.997 25.7064 0.009503 0.051678 -3.020363
2011-08-24 18:43:44 51°13.635 2°56.016 25.7126 0.009503 0.05168 -3.020363